TimeCDT,TemperatureF,Dew PointF,Humidity,Sea Level PressureIn,VisibilityMPH,Wind Direction,Wind SpeedMPH,Gust SpeedMPH,PrecipitationIn,Events,Conditions,WindDirDegrees,DateUTC
12:53 AM,75.9,71.1,85,30.11,6.0,Calm,Calm,-,N/A,,Haze,0,2013-09-11 05:53:00
1:53 AM,75.0,71.1,87,30.11,6.0,East,4.6,-,N/A,,Clear,100,2013-09-11 06:53:00
2:53 AM,73.0,70.0,90,30.11,5.0,ESE,3.5,-,N/A,,Clear,120,2013-09-11 07:53:00
3:53 AM,73.0,70.0,90,30.11,5.0,Calm,Calm,-,N/A,,Clear,0,2013-09-11 08:53:00
4:53 AM,73.0,70.0,90,30.12,4.0,ESE,4.6,-,N/A,,Clear,120,2013-09-11 09:53:00
5:53 AM,73.9,71.1,91,30.13,5.0,SSE,4.6,-,N/A,,Clear,150,2013-09-11 10:53:00
6:53 AM,72.0,70.0,93,30.15,4.0,Calm,Calm,-,N/A,,Clear,0,2013-09-11 11:53:00
7:53 AM,73.9,71.1,91,30.15,3.0,Calm,Calm,-,N/A,,Clear,0,2013-09-11 12:53:00
8:53 AM,79.0,72.0,79,30.16,6.0,South,4.6,-,N/A,,Haze,180,2013-09-11 13:53:00
9:53 AM,82.9,73.0,72,30.16,7.0,SE,4.6,-,N/A,,Clear,130,2013-09-11 14:53:00
10:53 AM,86.0,71.1,61,30.16,8.0,Calm,Calm,-,N/A,,Clear,0,2013-09-11 15:53:00
11:53 AM,89.1,71.1,55,30.15,9.0,Calm,Calm,-,N/A,,Clear,0,2013-09-11 16:53:00
12:53 PM,91.9,69.1,47,30.13,9.0,Calm,Calm,-,N/A,,Clear,0,2013-09-11 17:53:00
1:53 PM,91.9,69.1,47,30.11,10.0,South,3.5,-,N/A,,Clear,170,2013-09-11 18:53:00
2:53 PM,91.9,70.0,48,30.08,10.0,ESE,6.9,-,N/A,,Scattered Clouds,120,2013-09-11 19:53:00
3:53 PM,91.0,66.9,45,30.06,10.0,SE,8.1,-,N/A,,Partly Cloudy,140,2013-09-11 20:53:00
4:53 PM,91.9,66.9,44,30.04,10.0,SE,8.1,-,N/A,,Partly Cloudy,130,2013-09-11 21:53:00
5:53 PM,89.1,68.0,50,30.05,10.0,SE,6.9,-,N/A,,Clear,130,2013-09-11 22:53:00
6:53 PM,84.0,68.0,58,30.05,10.0,ESE,4.6,-,N/A,,Clear,120,2013-09-11 23:53:00
7:53 PM,80.1,68.0,67,30.06,10.0,SE,4.6,-,N/A,,Clear,140,2013-09-12 00:53:00
8:53 PM,79.0,66.0,64,30.07,10.0,Calm,Calm,-,N/A,,Clear,0,2013-09-12 01:53:00
9:53 PM,75.9,66.9,74,30.08,10.0,Calm,Calm,-,N/A,,Clear,0,2013-09-12 02:53:00
10:53 PM,75.0,69.1,82,30.08,9.0,Calm,Calm,-,N/A,,Clear,0,2013-09-12 03:53:00
11:53 PM,73.9,68.0,82,30.06,10.0,East,5.8,-,N/A,,Clear,90,2013-09-12 04:53:00